Location: Marcé
(47.5801°N, 0.3280°W)
Time: 11:31:00
(UTC+01:00)

deb Explorer IX - Pass Details

Date: 30 November 2021
Orbit: 544 x 1082 km, 38.8° (Epoch: 17 January)

Event Time Altitude Azimuth Distance (km) Brightness Sun altitude
Rises 16:19:22 0° 258° (WSW) 2,697 ? 6.3°
Reaches altitude 10° 16:22:03 10° 240° (WSW) 1,812 ? 6.0°
Maximum altitude 16:24:59 19° 194° (SSW) 1,356 ? 5.6°
Drops below altitude 10° 16:28:03 10° 148° (SSE) 1,894 ? 5.2°
Sets 16:30:57 0° 131° (SE) 2,866 ? 4.8°
